INMARSAT 5-F3

Last updated on Tue Sep 16 2025 00:02:48 GMT+0000 (Coordinated Universal Time)

1 40882U 15042A 25258.40602862 .00000035 00000+0 00000+0 0 9990 2 40882 0.0132 155.8743 0000383 270.7335 253.7727 1.00276839 36800
UTC large
Height (km)
Speed (km/s)
/
Latitude / Longitude
Inclination (degrees)
Orbital Period (minutes)
Azimuth
Elevation
Range (km)
Doppler Factor

Next 0 passes for location: London (51.5072 / 0.1276)

Sorry there are no passes over London.